CDT,Max TemperatureF,Mean TemperatureF,Min TemperatureF,Max Dew PointF,MeanDew PointF,Min DewpointF,Max Humidity, Mean Humidity, Min Humidity, Max Sea Level PressureIn, Mean Sea Level PressureIn, Min Sea Level PressureIn, Max VisibilityMiles, Mean VisibilityMiles, Min VisibilityMiles, Max Wind SpeedMPH, Mean Wind SpeedMPH, Max Gust SpeedMPH,PrecipitationIn, CloudCover, Events, WindDirDegrees
2012-7-1,87,78,68,75,72,68,100,82,55,29.94,29.91,29.88,10,8,0,16,7,20,0.00,0,Fog,158
2012-7-2,89,80,71,75,72,68,100,77,52,29.93,29.90,29.86,10,9,5,16,9,24,0.00,0,,187
2012-7-3,89,81,73,77,73,68,94,76,62,29.90,29.82,29.78,10,10,8,16,10,24,0.00,0,,194
2012-7-4,91,81,71,75,72,68,94,73,55,29.86,29.83,29.81,10,10,9,15,9,22,0.00,0,,184
2012-7-5,89,82,75,79,73,66,94,74,59,29.97,29.93,29.86,10,10,9,12,7,15,0.00,0,Rain,167
2012-7-6,93,81,69,77,72,66,94,72,49,29.97,29.96,29.93,10,10,10,14,8,20,0.00,0,,189
2012-7-7,80,74,68,73,67,61,94,76,54,30.14,30.07,29.98,10,10,9,16,10,24,0.00,2,,32
2012-7-8,78,72,66,64,61,57,88,68,47,30.21,30.17,30.12,10,10,10,14,9,22,0.00,1,,43
2012-7-9,84,74,64,68,62,57,88,69,48,30.18,30.15,30.12,10,10,3,15,5,24,0.09,1,Rain,358
2012-7-10,80,68,57,59,56,54,94,62,39,30.20,30.16,30.12,10,10,10,12,7,17,0.00,0,,37
2012-7-11,82,71,60,64,59,55,88,68,39,30.17,30.13,30.06,10,10,10,10,5,14,0.00,0,,135
2012-7-12,86,73,60,72,65,57,88,73,48,30.07,30.03,29.99,10,10,9,10,6,14,0.00,1,,153
2012-7-13,86,78,71,73,69,64,94,75,55,30.03,30.00,29.96,10,10,7,14,6,17,0.00,2,Rain,181
2012-7-14,87,76,66,72,69,64,94,75,55,30.07,30.03,30.01,10,10,7,9,5,15,0.00,0,,122
2012-7-15,89,78,66,73,69,64,100,74,49,30.08,30.03,29.95,10,10,6,14,7,15,0.00,0,,139
2012-7-16,89,78,68,72,67,61,88,68,49,29.97,29.90,29.82,10,10,10,17,10,28,0.00,0,,193
2012-7-17,93,80,68,73,70,66,94,70,44,29.86,29.84,29.81,10,10,7,13,7,18,0.00,0,,184
2012-7-18,87,78,69,75,71,66,94,77,55,29.95,29.88,29.83,10,10,3,12,6,15,0.00,1,,89
2012-7-19,89,78,66,73,70,64,100,81,46,30.10,30.02,29.95,10,9,0,8,4,,0.04,0,Fog,66
2012-7-20,87,76,64,73,69,64,100,78,55,30.15,30.10,30.06,10,9,4,12,7,16,0.00,0,,156
2012-7-21,87,78,68,72,66,61,88,72,52,30.12,30.05,29.97,10,10,9,13,8,17,0.00,1,,173
2012-7-22,96,84,71,77,68,64,88,65,37,30.07,29.97,29.93,10,10,9,17,8,23,0.00,0,,197
2012-7-23,95,84,73,73,70,66,89,63,44,30.02,29.97,29.92,10,10,7,13,6,15,0.00,0,Rain,202
2012-7-24,95,83,71,72,68,64,83,63,41,29.96,29.88,29.78,10,10,9,17,8,25,0.00,0,,165
2012-7-25,93,81,69,72,68,64,94,64,46,29.77,29.70,29.66,10,10,2,20,11,29,0.19,1,Rain,240
2012-7-26,87,76,66,70,64,57,100,70,37,29.93,29.84,29.73,10,8,0,14,8,26,0.00,1,Fog,300
2012-7-27,78,68,59,63,59,57,94,76,51,30.13,30.04,29.94,10,10,10,14,8,20,0.00,3,,345
2012-7-28,71,66,60,68,63,59,94,90,78,30.20,30.10,30.01,10,9,1,18,6,25,0.28,2,Rain,131
2012-7-29,82,72,62,72,67,63,100,83,65,30.03,29.97,29.96,10,10,3,13,7,17,0.00,1,,109
2012-7-30,93,78,62,75,69,63,100,77,38,30.00,29.96,29.91,10,6,0,10,4,,0.00,0,Fog,315
2012-7-31,86,77,68,70,65,63,94,69,48,30.05,30.00,29.97,10,10,9,10,7,15,0.00,0,,81